Back to catalog

DMSP 5D-2 F13 DEB

AliveSSO
NORAD 42272·DEBRIS·🇺🇸 United States

Launched Mar 24, 1995 from Vandenberg Space Force Base

Loading…

Next Passes (next 24 hours)

TLE

FreshSource: Space-Track

Epoch: Sep 13, 2026, 13:02 UTC

1 42272U 95015GN  26256.54307568  .00002558  00000-0  91517-3 0  9992
2 42272  98.8632 289.4769 0019462 300.4849  59.4413 14.34845875580367

Track DMSP 5D-2 F13 DEB in real time with AllMySat

Download on the App Store